EW4264 Weather Reports


Display with metric or nautical units.
time (UTC)temp
F
wind
direction
speed
MPH
gust
MPH
rain 1hr
in
rain 24hr
in
rain mn
in
humidity
%
barometer
mb
20180924212549 80 244 2.0 5.0 0.00 0.00 0.00 74 1010.2
20180924211043 81 297 2.0 7.0 0.00 0.00 0.00 74 1010.4
20180924205541 82 215 1.0 7.0 0.00 0.00 0.00 70 1010.5
20180924204039 84 294 2.0 5.0 0.00 0.00 0.00 69 1010.5
20180924202539 83 169 2.0 7.0 0.00 0.00 0.00 69 1010.6
20180924201033 82 301 2.0 8.0 0.00 0.00 0.00 71 1010.9
20180924195533 81 283 2.0 8.0 0.00 0.00 0.00 73 1011.1
20180924194027 80 278 3.0 7.0 0.00 0.00 0.00 75 1011.5
20180924192526 80 313 2.0 7.0 0.00 0.00 0.00 77 1011.5
20180924191023 80 335 2.0 7.0 0.00 0.00 0.00 76 1011.8
20180924185524 80 262 1.0 4.0 0.00 0.00 0.00 74 1011.9
20180924184022 80 272 0.0 4.0 0.00 0.00 0.00 74 1012.2
20180924182522 80 275 2.0 6.0 0.00 0.00 0.00 72 1012.5
20180924181019 81 147 1.0 4.0 0.00 0.00 0.00 72 1012.6
20180924175521 81 5 0.0 5.0 0.00 0.00 0.00 71 1012.8
20180924174018 79 209 0.0 4.0 0.00 0.00 0.00 73 1013.0
20180924172514 79 251 1.0 4.0 0.00 0.00 0.00 73 1013.2
20180924171012 79 103 2.0 6.0 0.00 0.00 0.00 73 1013.4
20180924165511 78 175 1.0 3.0 0.00 0.00 0.00 74 1013.5
20180924164008 78 93 0.0 5.0 0.00 0.00 0.00 76 1013.6
20180924162504 77 140 1.0 6.0 0.00 0.00 0.00 77 1013.6
20180924161006 76 107 1.0 6.0 0.00 0.00 0.00 79 1013.7
20180924155502 76 29 0.0 3.0 0.00 0.00 0.00 82 1013.6
20180924153958 75 313 1.0 3.0 0.00 0.00 0.00 83 1013.6
20180924152457 74 24 0.0 3.0 0.00 0.00 0.00 86 1013.5
20180924150950 73 119 0.0 3.0 0.00 0.00 0.00 87 1013.5
20180924145445 73 106 1.0 3.0 0.00 0.00 0.00 88 1013.5
20180924143947 72 107 1.0 3.0 0.00 0.00 0.00 89 1013.3
20180924142443 72 111 0.0 2.0 0.00 0.00 0.00 90 1013.2
20180924140938 72 111 0.0 1.0 0.00 0.00 0.00 91 1013.2
20180924135438 71 98 0.0 3.0 0.00 0.00 0.00 92 1013.2
20180924133935 71 143 0.0 0.0 0.00 0.00 0.00 92 1013.1
20180924132435 70 143 0.0 0.0 0.00 0.00 0.00 93 1013.0
20180924130931 70 143 0.0 0.0 0.00 0.00 0.00 93 1012.9
20180924125431 70 143 0.0 0.0 0.00 0.00 0.00 93 1012.8
20180924123927 70 143 0.0 0.0 0.00 0.00 0.00 93 1012.6
20180924122427 70 143 0.0 0.0 0.00 0.00 0.00 93 1012.6
20180924120925 70 143 0.0 0.0 0.00 0.00 0.00 93 1012.5
20180924115424 70 143 0.0 0.0 0.00 0.00 0.00 93 1012.5
20180924113925 70 143 0.0 0.0 0.00 0.00 0.00 93 1012.5
20180924112422 70 143 0.0 0.0 0.00 0.00 0.00 93 1012.3
20180924110920 70 143 0.0 0.0 0.00 0.00 0.00 93 1012.1
20180924105421 69 143 0.0 0.0 0.00 0.00 0.00 93 1012.1
20180924103922 70 143 0.0 0.0 0.00 0.00 0.00 93 1012.1
20180924102419 70 143 0.0 0.0 0.00 0.00 0.00 92 1012.1
20180924100920 70 143 0.0 0.0 0.00 0.00 0.00 92 1012.0
20180924095418 70 143 0.0 0.0 0.00 0.00 0.00 92 1012.0
20180924093919 70 143 0.0 0.0 0.00 0.00 0.00 92 1011.9
20180924092416 70 143 0.0 0.0 0.00 0.00 0.00 92 1011.8
20180924090917 70 143 0.0 0.0 0.00 0.00 0.00 92 1011.8
20180924085417 70 143 0.0 0.0 0.00 0.00 0.00 92 1011.9
20180924083916 70 143 0.0 0.0 0.00 0.00 0.00 92 1011.9
20180924082415 70 143 0.0 0.0 0.00 0.00 0.00 92 1011.9
20180924080913 69 143 0.0 0.0 0.00 0.00 0.00 93 1012.0
20180924075414 69 143 0.0 0.0 0.00 0.00 0.00 92 1012.1
20180924073912 70 143 0.0 0.0 0.00 0.00 0.00 92 1012.1
20180924072409 70 143 0.0 0.0 0.00 0.00 0.00 91 1012.1
20180924070912 70 143 0.0 0.0 0.00 0.00 0.00 90 1012.1
20180924065406 70 143 0.0 0.0 0.00 0.00 0.00 90 1012.1
20180924063906 70 143 0.0 0.0 0.00 0.00 0.00 89 1012.1
20180924062403 71 143 0.0 0.0 0.00 0.00 0.00 89 1012.2
20180924060901 71 143 0.0 0.0 0.00 0.00 0.00 88 1012.4
20180924055401 71 143 0.0 0.0 0.00 0.00 0.00 89 1012.5
20180924053856 71 143 0.0 0.0 0.00 0.00 0.00 88 1012.5
20180924052353 71 143 0.0 0.0 0.00 0.00 0.00 88 1012.5
20180924050848 71 143 0.0 0.0 0.00 0.00 0.00 88 1012.5
20180924045346 71 162 0.0 0.0 0.00 0.00 0.00 88 1012.4
20180924043844 71 162 0.0 0.0 0.00 0.00 0.00 87 1012.4
20180924042343 71 162 0.0 0.0 0.00 0.00 0.00 87 1012.4
20180924040844 71 162 0.0 2.0 0.00 0.00 0.00 87 1012.4
20180924035342 71 141 1.0 3.0 0.00 0.00 0.00 87 1012.5
20180924033846 71 185 0.0 2.0 0.00 0.00 0.00 87 1012.4
20180924032341 71 176 2.0 4.0 0.00 0.00 0.00 86 1012.2
20180924030844 72 161 1.0 5.0 0.00 0.00 0.00 87 1012.3
20180924025344 72 142 2.0 4.0 0.00 0.00 0.00 86 1012.2
20180924023839 72 150 0.0 3.0 0.00 0.00 0.00 87 1012.1
20180924022340 72 140 2.0 4.0 0.00 0.00 0.00 86 1012.0
20180924020840 72 145 2.0 4.0 0.00 0.00 0.00 86 1011.9
20180924015336 72 155 0.0 3.0 0.00 0.00 0.00 86 1011.6
20180924013838 72 134 1.0 5.0 0.00 0.00 0.00 86 1011.4
20180924012336 72 141 0.0 4.0 0.00 0.00 0.00 86 1011.2
20180924010834 72 142 1.0 4.0 0.00 0.00 0.00 85 1011.1
20180924005334 72 126 0.0 6.0 0.00 0.00 0.00 85 1011.2
20180924003836 72 148 3.0 6.0 0.00 0.00 0.00 84 1011.1
20180924002334 73 115 2.0 8.0 0.00 0.00 0.00 84 1011.1
20180924000833 73 150 3.0 6.0 0.00 0.00 0.00 83 1011.0
20180923235331 73 158 3.0 7.0 0.00 0.00 0.00 82 1010.9
20180923233832 73 169 1.0 4.0 0.00 0.00 0.00 83 1010.9
20180923232330 73 188 2.0 5.0 0.00 0.00 0.00 83 1011.0
20180923230833 73 139 3.0 7.0 0.00 0.00 0.00 82 1011.0
20180923225328 74 148 3.0 8.0 0.00 0.00 0.00 81 1010.9
20180923223828 75 148 5.0 9.0 0.00 0.00 0.00 80 1010.9
20180923222327 75 175 3.0 8.0 0.00 0.00 0.00 79 1011.0
20180923220825 74 160 4.0 7.0 0.00 0.00 0.00 80 1011.0
20180923215324 74 154 6.0 10.0 0.00 0.00 0.00 81 1011.1
20180923213821 73 142 2.0 6.0 0.00 0.00 0.00 83 1011.1